sat.trackr.live / text

‹ back to catalog

ONEWEB-0664

NORAD 55824 · 2023-029AE

PAYLOAD ACTIVE UNKNOWN

§ Identity

Operator
Country
UK
Launch date
2023-03-09
Launch site
AFETR
Launch vehicle
Mass (kg)
RCS (m²)

Purposes: comms

External: N2YO · Heavens-Above · Gunter

§ Orbital elements

Epoch: 2026-05-24T15:08:00.820320Z

Period
109.03 min
Inclination
87.9161°
Eccentricity
0.0002199
Mean motion
13.20771288 rev/d
Perigee alt
1,180.1 km
Apogee alt
1,183.4 km
Semi-major
7,559.9 km
B*
2.8877e-4
RAAN
279.1817°
Arg perigee
88.3996°
Mean anomaly
271.7389°
Rev number
15,803

§ Raw data

ONEWEB-06641 55824U 23029AE  26144.63056505  .00000130  00000+0  28877-3 0  99952 55824  87.9161 279.1817 0002199  88.3996 271.7389 13.20771288158030

JSON: /api/v1/satellites/55824 · /tle

For live sub-satellite position, see the globe view (requires WebGL).

§ Visibility from observer

Set your observer location to see the next 7 days of passes ≥ 10°. The values pass through the URL so the page stays shareable.

No JS? Fill the form by hand. The geolocation button needs JavaScript.